Main page
Satellite images Climate Cyclones Lightning AirportsFAQ Languages Contact Newsletter About
Weather : Europe Africa North America South America Asia Australia-Oceania Others

, Mae Sot, Mae Sot Airport

48375

latitude: , longitude: Thailand, elevation: 16-40N m


METAR: VTPM 241100Z 24007KT 210V280 9999 FEW020TCU SCT025 33/18 Q1010